STARLINK-1143 (45179 NORAD) Tracking and Keplerian Element Data

This shows tracking and keplerian element data for the satellite.

Feedback or suggestion? Click here.




ElementValue
Catalog45179
NameSTARLINK-1143
Epoch Orbit161
Epoch Day93.91667824
Epoch Year2020
RAAN53.7338
Inclination52.9868
Eccentricity0.0001045
Argument of Perigee66.2836
Mean Anonmoly297.274
Mean Motion15.05605691
Decay Rate0.00024721
L11 45179U 20012B 20093.91667824 .00024721 00000-0 17087-2 0 9999
L22 45179 52.9868 53.7338 0001045 66.2836 297.2740 15.05605691 1613

Live tracking and technical data element details for STARLINK-1143 (NORAD 45179). STARLINK-1143 can be tracked NOW for your location showing map with azimuth and elevation plus other details from your city location.

Track the satellite on the map from your city or location and see movement details for azimuth, elevation, latitude, longitude, range, height, and movement on the map or in text.







IsCatalogInMostPopularTable: catalog: 45179, numindb: 7
Update: records affected: 1



GetName: 45179 STARLINK-1143

Hit Count: updated at: Mon, 06 Apr 2020 10:37:09 GMT